This demonstration page uses our WeatherBlox Daily Observations layout. Learn more.

Left ArrowRight Arrow

38.20091, -84.87328

Hourly Observations for August 19, 2016

Temp ( °F °C ) Dew Point ( °F °C ) Humidity (%) Winds ( mph kmh ) Pressure ( in mb ) Visibility ( mi km ) Precip ( " mm )
12:53 am 00:53 Clear 73 22.8 69 20.6 87 87 Calm 30.03 1017 10 16 0.00 0.00
1:00 am 01:00 Partly Cloudy 73 22.8 69 20.6 87 87 Calm 30.03 1017 10 16 0.00 0.00
1:53 am 01:53 Mostly Clear 72 22.2 69 20.6 91 91 S 3 6 30.03 1017 9 14 0.00 0.00
2:26 am 02:26 Mostly Cloudy 72 22.2 69 20.6 91 91 SSW 3 6 30.00 1016 9 14 0.00 0.00
2:41 am 02:41 Cloudy 72 22.2 69 20.6 91 91 Calm 30.00 1016 9 14 0.00 0.00
2:53 am 02:53 Cloudy 72 22.2 69 20.6 91 91 Calm 30.01 1016 9 14 0.00 0.00
3:24 am 03:24 Cloudy with Mist and Fog 72 22.2 70 21.1 94 94 Calm 30.00 1016 3 4 0.00 0.00
3:36 am 03:36 Cloudy with Mist and Fog 72 22.2 70 21.1 94 94 Calm 30.00 1016 1 2 0.00 0.00
3:44 am 03:44 Mostly Cloudy with Mist and Fog 72 22.2 70 21.1 94 94 Calm 30.00 1016 1 2 0.00 0.00
3:53 am 03:53 Mostly Cloudy with Mist and Fog 72 22.2 70 21.1 94 94 W 3 6 30.02 1017 1 2 0.00 0.00
4:08 am 04:08 Mostly Cloudy with Mist and Fog 72 22.2 70 21.1 94 94 Calm 30.00 1016 1 1 0.00 0.00
4:53 am 04:53 Mostly Cloudy with Fog 72 22.2 70 21.1 94 94 SSW 3 6 30.02 1017 1 1 0.00 0.00
5:08 am 05:08 Mostly Cloudy with Mist and Fog 72 22.2 70 21.1 94 94 Calm 30.03 1017 1 2 0.00 0.00
5:17 am 05:17 Mostly Cloudy with Mist and Fog 72 22.2 70 21.1 94 94 Calm 30.03 1017 1 1 0.00 0.00
5:35 am 05:35 Cloudy with Mist and Fog 72 22.2 70 21.1 94 94 Calm 30.03 1017 1 2 0.00 0.00
5:44 am 05:44 Cloudy with Mist and Fog 72 22.2 69 20.6 91 91 Calm 30.00 1016 3 5 0.00 0.00
5:53 am 05:53 Cloudy with Mist and Fog 72 22.2 69 20.6 91 91 Calm 30.02 1017 3 5 0.00 0.00
6:53 am 06:53 Cloudy with Mist and Fog 72 22.2 70 21.1 94 94 SSW 5 7 30.01 1016 3 5 0.00 0.00
7:31 am 07:31 Cloudy with Mist and Fog 72 22.2 70 21.1 94 94 Calm 30.00 1016 2 3 0.00 0.00
7:53 am 07:53 Cloudy with Mist and Fog 72 22.2 70 21.1 94 94 Calm 30.01 1016 2 3 0.00 0.00
7:59 am 07:59 Cloudy with Mist and Fog 72 22.2 69 20.6 91 91 Calm 30.00 1016 3 5 0.00 0.00
8:06 am 08:06 Cloudy with Mist and Fog 72 22.2 70 21.1 94 94 Calm 30.00 1016 3 4 0.00 0.00
8:17 am 08:17 Cloudy with Mist and Fog 72 22.2 70 21.1 94 94 SW 3 6 30.00 1016 4 6 0.00 0.00
8:40 am 08:40 Cloudy 73 22.8 70 21.1 90 90 Calm 30.00 1016 7 11 0.00 0.00
8:53 am 08:53 Cloudy 73 22.8 70 21.1 90 90 Calm 30.01 1016 7 11 0.00 0.00
9:53 am 09:53 Cloudy 74 23.3 70 21.1 88 88 SW 7 11 30.00 1016 7 11 0.00 0.00
10:27 am 10:27 Cloudy 75 23.9 70 21.1 84 84 SSW 5 7 29.97 1015 8 13 0.00 0.00
10:37 am 10:37 Cloudy 76 24.4 70 21.1 82 82 SSW 7 11 29.97 1015 8 13 0.00 0.00
10:53 am 10:53 Cloudy 76 24.4 69 20.6 79 79 SSW 9 15 30.00 1016 8 13 0.00 0.00
11:31 am 11:31 Partly Cloudy 77 25 69 20.6 77 77 S 5 7 30.00 1016 8 13 0.00 0.00
11:41 am 11:41 Mostly Cloudy 78 25.6 70 21.1 76 76 SSW 5 7 30.00 1016 8 13 0.00 0.00
11:53 am 11:53 Mostly Cloudy 78 25.6 70 21.1 76 76 WSW 6 9 30.01 1016 7 11 0.00 0.00
12:23 pm 12:23 Mostly Cloudy 79 26.1 70 21.1 74 74 SW 3 6 30.00 1016 7 11 0.00 0.00
12:53 pm 12:53 Mostly Cloudy 79 26.1 70 21.1 74 74 WSW 9 15 30.01 1016 8 13 0.00 0.00
1:30 pm 13:30 Mostly Cloudy 81 27.2 68 20 65 65 VRB 3 6 30.00 1016 10 16 0.00 0.00
1:42 pm 13:42 Mostly Cloudy 81 27.2 69 20.6 67 67 VRB 3 6 30.00 1016 10 16 0.00 0.00
1:53 pm 13:53 Mostly Cloudy 83 28.3 68 20 61 61 NNW 3 6 29.99 1016 10 16 0.00 0.00
2:53 pm 14:53 Partly Cloudy 83 28.3 69 20.6 63 63 W 5 7 29.97 1015 10 16 0.00 0.00
3:53 pm 15:53 Sunny 85 29.4 69 20.6 59 59 VRB 5 7 29.93 1013 10 16 0.00 0.00
4:53 pm 16:53 Mostly Cloudy 84 28.9 69 20.6 61 61 S 6 9 29.91 1013 10 16 0.00 0.00
5:53 pm 17:53 Mostly Sunny 82 27.8 70 21.1 67 67 SW 10 17 29.91 1013 10 16 0.00 0.00
6:53 pm 18:53 Sunny 83 28.3 69 20.6 63 63 SSW 7 11 29.91 1013 10 16 0.00 0.00
7:53 pm 19:53 Sunny 80 26.7 70 21.1 71 71 S 6 9 29.90 1013 10 16 0.00 0.00
8:53 pm 20:53 Mostly Clear 78 25.6 69 20.6 74 74 SSW 5 7 29.90 1012 10 16 0.00 0.00
9:53 pm 21:53 Clear 76 24.4 70 21.1 82 82 SSW 6 9 29.91 1013 10 16 0.00 0.00
10:53 pm 22:53 Clear 74 23.3 69 20.6 85 85 SW 3 6 29.92 1013 10 16 0.00 0.00
11:53 pm 23:53 Clear 73 22.8 69 20.6 87 87 SW 3 6 29.92 1013 10 16 0.00 0.00

Powered by AerisWeather